SAS7A EDDH-EVRA

Flight info

Callsign SAS7A
Flight time N/A
Altitude 39000
Route LUGEG3G LUGEG P605 MEGAR DCT MATEK DCT NINTA DCT ADAXA DCT ORVIX
Aircraft A20N/M-SDE2E3FGHIRWXY/LB1

Departure

Time 2026-04-24 16:33
Airport Hamburg Helmut Schmidt Airport (EDDH)

Arrival

Time N/A
Airport Riga International Airport (EVRA)
Time Latitude Longitude Altitude Speed Heading
2026-04-24 16:18 53.63170 10.00355 62 ft 0 kts 86°
2026-04-24 16:25 53.63170 10.00354 62 ft 0 kts 86°
2026-04-24 16:25 53.63169 10.00347 62 ft 2 kts 86°
2026-04-24 16:26 53.63167 10.00297 62 ft 2 kts 88°
2026-04-24 16:26 53.63171 10.00272 62 ft 2 kts 126°
2026-04-24 16:26 53.63192 10.00250 62 ft 1 kts 174°
2026-04-24 16:27 53.63199 10.00249 62 ft 0 kts 176°
2026-04-24 16:28 53.63163 10.00256 62 ft 12 kts 173°
2026-04-24 16:29 53.63077 10.00261 62 ft 12 kts 189°
2026-04-24 16:29 53.63002 10.00193 62 ft 11 kts 211°
2026-04-24 16:29 53.62877 10.00049 62 ft 10 kts 231°
2026-04-24 16:30 53.62848 9.99971 62 ft 0 kts 241°
2026-04-24 16:31 53.62847 9.99970 62 ft 0 kts 241°
2026-04-24 16:31 53.62835 9.99931 62 ft 7 kts 242°
2026-04-24 16:31 53.62811 9.99821 62 ft 12 kts 282°
2026-04-24 16:32 53.62851 9.99756 62 ft 12 kts 332°
2026-04-24 16:32 53.63086 9.99553 62 ft 70 kts 333°
2026-04-24 16:32 53.63746 9.98985 63 ft 138 kts 333°
2026-04-24 16:32 53.64729 9.98166 515 ft 155 kts 330°
2026-04-24 16:33 53.65690 9.97336 1249 ft 156 kts 329°
2026-04-24 16:33 53.66640 9.96508 2007 ft 157 kts 330°
2026-04-24 16:33 53.67525 9.95729 2512 ft 168 kts 330°
2026-04-24 16:33 53.68779 9.94848 2972 ft 192 kts 343°
2026-04-24 16:34 53.70190 9.94600 3557 ft 210 kts 355°
2026-04-24 16:34 53.71635 9.94605 4477 ft 209 kts 359°
2026-04-24 16:34 53.73037 9.95127 5419 ft 213 kts 25°
2026-04-24 16:34 53.74135 9.96821 6240 ft 227 kts 51°
2026-04-24 16:35 53.74921 9.99302 6801 ft 247 kts 58°
2026-04-24 16:35 53.75713 10.02111 7373 ft 266 kts 59°
2026-04-24 16:35 53.76529 10.05034 8072 ft 277 kts 59°
2026-04-24 16:35 53.77367 10.08013 9007 ft 279 kts 58°
2026-04-24 16:36 53.78229 10.11045 9872 ft 284 kts 57°
2026-04-24 16:36 53.79290 10.13899 10733 ft 283 kts 47°
2026-04-24 16:36 53.80544 10.16571 11250 ft 298 kts 45°
2026-04-24 16:36 53.81896 10.19361 11736 ft 315 kts 45°
2026-04-24 16:37 53.83268 10.22238 12468 ft 322 kts 46°
2026-04-24 16:37 53.84679 10.25251 13281 ft 326 kts 47°
2026-04-24 16:37 53.85603 10.27242 13792 ft 329 kts 47°
2026-04-24 16:37 53.87500 10.31362 14803 ft 336 kts 47°
2026-04-24 16:38 53.88951 10.34531 15547 ft 340 kts 48°
2026-04-24 16:38 53.90402 10.37711 16271 ft 345 kts 48°
2026-04-24 16:38 53.91876 10.40948 16983 ft 349 kts 48°
2026-04-24 16:38 53.93383 10.44263 17684 ft 353 kts 48°
2026-04-24 16:39 53.94892 10.47588 18361 ft 358 kts 48°
2026-04-24 16:39 53.96414 10.50955 19003 ft 363 kts 48°
2026-04-24 16:39 53.97960 10.54374 19621 ft 368 kts 48°
2026-04-24 16:39 53.99535 10.57861 20230 ft 373 kts 48°
2026-04-24 16:40 54.01107 10.61349 20823 ft 377 kts 47°
2026-04-24 16:40 54.02744 10.64986 21438 ft 382 kts 47°
2026-04-24 16:40 54.04363 10.68581 22004 ft 386 kts 48°
2026-04-24 16:40 54.06045 10.72319 22568 ft 391 kts 48°
2026-04-24 16:41 54.07708 10.76026 23114 ft 395 kts 47°
2026-04-24 16:41 54.09393 10.79786 23642 ft 399 kts 47°
2026-04-24 16:41 54.11086 10.83568 24167 ft 403 kts 47°
2026-04-24 16:41 54.12787 10.87373 24685 ft 407 kts 47°
2026-04-24 16:42 54.14506 10.91229 25191 ft 411 kts 47°
2026-04-24 16:42 54.16249 10.95140 25671 ft 415 kts 47°
2026-04-24 16:42 54.17985 10.99042 26147 ft 418 kts 47°
2026-04-24 16:42 54.19743 11.03002 26608 ft 421 kts 47°
2026-04-24 16:43 54.21547 11.07074 27009 ft 425 kts 47°
2026-04-24 16:43 54.23367 11.11186 27102 ft 426 kts 47°
2026-04-24 16:43 54.25162 11.15252 27105 ft 425 kts 47°
2026-04-24 16:43 54.26923 11.19245 27105 ft 425 kts 47°
2026-04-24 16:44 54.28739 11.23374 27112 ft 426 kts 47°
2026-04-24 16:44 54.30529 11.27440 27372 ft 431 kts 47°
2026-04-24 16:44 54.32331 11.31542 27897 ft 432 kts 47°
2026-04-24 16:44 54.34117 11.35618 28352 ft 434 kts 47°
2026-04-24 16:45 54.35924 11.39747 28752 ft 437 kts 47°
2026-04-24 16:45 54.37745 11.43913 29143 ft 440 kts 47°
2026-04-24 16:45 54.39587 11.48134 29527 ft 443 kts 47°
2026-04-24 16:45 54.41421 11.52346 29892 ft 446 kts 47°
2026-04-24 16:46 54.43288 11.56645 30250 ft 450 kts 47°
2026-04-24 16:46 54.45162 11.60965 30607 ft 452 kts 47°
2026-04-24 16:46 54.47075 11.65285 30950 ft 454 kts 46°
2026-04-24 16:46 54.49050 11.69438 31258 ft 456 kts 45°
2026-04-24 16:47 54.51107 11.73677 31660 ft 456 kts 44°
2026-04-24 16:47 54.53123 11.77817 32109 ft 455 kts 44°
2026-04-24 16:47 54.55146 11.81982 32534 ft 454 kts 44°
2026-04-24 16:47 54.57180 11.86185 32936 ft 454 kts 44°
2026-04-24 16:48 54.59174 11.90314 33314 ft 453 kts 44°
2026-04-24 16:48 54.61191 11.94502 33676 ft 453 kts 44°
2026-04-24 16:48 54.63185 11.98648 34022 ft 453 kts 44°
2026-04-24 16:48 54.65191 12.02831 34372 ft 453 kts 44°
2026-04-24 16:49 54.67185 12.06998 34722 ft 452 kts 44°
2026-04-24 16:49 54.69182 12.11172 35072 ft 451 kts 44°
2026-04-24 16:49 54.71180 12.15359 35424 ft 450 kts 44°
2026-04-24 16:49 54.73159 12.19512 35748 ft 449 kts 44°
2026-04-24 16:50 54.74475 12.22276 35949 ft 448 kts 44°
2026-04-24 16:50 54.77092 12.27781 36339 ft 447 kts 44°
2026-04-24 16:50 54.79083 12.31981 36610 ft 447 kts 44°
2026-04-24 16:50 54.81035 12.36100 36864 ft 447 kts 44°
2026-04-24 16:51 54.83017 12.40294 37127 ft 446 kts 44°
2026-04-24 16:51 54.84966 12.44424 37369 ft 446 kts 44°
2026-04-24 16:51 54.86933 12.48599 37605 ft 446 kts 44°
2026-04-24 16:51 54.88879 12.52738 37830 ft 445 kts 44°
2026-04-24 16:52 54.90813 12.56855 38017 ft 446 kts 44°
2026-04-24 16:52 54.92780 12.61052 38186 ft 447 kts 44°
2026-04-24 16:52 54.94743 12.65251 38356 ft 448 kts 45°
2026-04-24 16:52 54.96709 12.69462 38489 ft 449 kts 45°
2026-04-24 16:53 54.98631 12.73710 38598 ft 452 kts 47°
2026-04-24 16:53 55.00449 12.78240 38735 ft 456 kts 51°
2026-04-24 16:53 55.02100 12.82969 38890 ft 459 kts 55°
2026-04-24 16:53 55.03582 12.87899 39006 ft 463 kts 59°
2026-04-24 16:54 55.06205 12.98223 39008 ft 465 kts 62°
2026-04-24 16:54 55.08738 13.08568 39004 ft 465 kts 62°
2026-04-24 16:55 55.11309 13.19041 39002 ft 465 kts 62°
2026-04-24 16:55 55.13853 13.29403 38999 ft 465 kts 61°
2026-04-24 16:56 55.16395 13.39800 38999 ft 464 kts 61°
2026-04-24 16:56 55.18919 13.50162 38998 ft 464 kts 61°
2026-04-24 16:57 55.21423 13.60489 38998 ft 464 kts 61°
2026-04-24 16:57 55.23934 13.70894 38997 ft 464 kts 62°
2026-04-24 16:58 55.26437 13.81317 38997 ft 464 kts 62°
2026-04-24 16:58 55.28921 13.91715 38998 ft 464 kts 62°
2026-04-24 16:59 55.31392 14.02104 38996 ft 464 kts 62°
2026-04-24 17:00 55.35103 14.17810 38974 ft 463 kts 62°
2026-04-24 17:00 55.38782 14.33488 38962 ft 463 kts 62°
2026-04-24 17:01 55.42457 14.49264 38974 ft 463 kts 62°
2026-04-24 17:02 55.46124 14.65128 38983 ft 464 kts 63°
2026-04-24 17:02 55.48548 14.75672 38990 ft 464 kts 63°
2026-04-24 17:03 55.52180 14.91575 38995 ft 464 kts 63°
2026-04-24 17:04 55.54655 15.02480 38996 ft 464 kts 63°
2026-04-24 17:04 55.58315 15.18713 38988 ft 464 kts 63°
2026-04-24 17:05 55.60833 15.29949 38975 ft 464 kts 63°
2026-04-24 17:06 55.64548 15.46646 38954 ft 465 kts 63°
2026-04-24 17:06 55.68254 15.63433 38945 ft 465 kts 63°
2026-04-24 17:07 55.70650 15.74357 38943 ft 466 kts 64°
2026-04-24 17:08 55.75332 15.95886 38943 ft 466 kts 64°
2026-04-24 17:08 55.77670 16.06724 38943 ft 466 kts 64°
2026-04-24 17:09 55.82476 16.29173 38943 ft 466 kts 64°
2026-04-24 17:10 55.87334 16.52123 38943 ft 465 kts 64°
2026-04-24 17:12 55.96876 16.97965 38943 ft 462 kts 65°